World > North America > United States > Oregon > Beavercreek

Hourly Beavercreek, OR Regional Weather

Feedback E-mail the Weather

Quick WX

Beavercreek, OR Weather Maps

°F °C°F °C
Beavercreek Weather Map
UTC Time: 8/8/2022, 08:18
Your Time:

Beavercreek, OR Regional Weather

Expires:202208080900;;664538
ASUS46 KPQR 080810
RWROR 

OREGON REGIONAL WEATHER ROUNDUP
NATIONAL WEATHER SERVICE PORTLAND OR
100 AM PDT MON AUG 08 2022

NOTE: "FAIR" INDICATES FEW OR NO CLOUDS BELOW 12,000 FEET WITH
NO SIGNIFICANT WEATHER AND/OR OBSTRUCTIONS TO VISIBILITY.


ORZ001>013-080900-
NORTHWEST OREGON

  
CITY           SKY/WX    TMP DP  RH WIND       PRES   REMARKS
ASTORIA        CLOUDY    55  53  93 SW3       30.01S                  
TILLAMOOK      CLOUDY    55  52  88 CALM      30.04F                  
NEWPORT        CLOUDY    54  54 100 S5        30.06S FOG              
FLORENCE       CLOUDY    57  57 100 CALM      30.03F FOG              
PORTLAND       CLEAR     79  54  41 NW7       29.92S                  
VANCOUVER WA   CLEAR     78  52  40 VRB3      29.93R                  
SCAPPOOSE      CLEAR     76  54  46 N5        29.92R                  
HILLSBORO      CLEAR     71  56  58 CALM      29.93R                  
AURORA         CLEAR     69  55  60 S3        29.95S                  
MCMINNVILLE    CLEAR     64  53  67 W10       29.93F                  
SALEM          CLEAR     66  55  67 S3        29.95R                  
CORVALLIS      CLEAR     58  53  84 NW16G22   29.98R                  
EUGENE         CLEAR     61  54  77 SW12      29.99S                  
CRESWELL       CLOUDY    63  54  72 W6        29.99R                  
$$


SKY/WX - Weather  TMP - Temperature  DP - Dew Point  RH - Humidity
WIND - Wind Direction/Speed PRES - Barometric Pressure VSB - Visibility
WCI - Wind Chill Index E13G22 Wind - East Wind 13 mph/Gusts of 22 mph

Trending Headlines

Beavercreek Radar Loop



Beavercreek Quick Facts


National Two Day Weather Forecast


E-mail the Beavercreek Weather Forecast

Voice your opinion or tell us about page issues...